Avon, MN (56310)

3:25 AM CDT on August 29, 2016 (GMT -0500)
Stratford Addition | | Change Station

Elev 1125 ft 45.60 °N, 94.47 °W | Updated 11 seconds ago

Clear
Clear
71.2 °F
Feels Like 71.2 °F
N
1.7
Wind Variable Wind from NNE

Today
High -- | Low -- °F
--% Chance of Precip.
Yesterday
High -- | Low -- °F
Precip. -- in
Pressure 30.11 in
Visibility 10.0 miles
Clouds Clear
Dew Point 68 °F
Humidity 91%
Rainfall 0.00 in
Snow Depth Not available.
6:35 AM 8:00 PM
Waning Crescent, 10% visible
METAR KSTC 290753Z AUTO 17006KT 10SM CLR 22/21 A3010 RMK AO2 SLP196 T02170211
Pressure 30.11 in
Visibility 10.0 miles
Clouds Clear
Dew Point 68 °F
Humidity 91%
Rainfall 0.00 in
Snow Depth Not available.
6:35 AM 8:00 PM
Waning Crescent, 10% visible
METAR KSTC 290753Z AUTO 17006KT 10SM CLR 22/21 A3010 RMK AO2 SLP196 T02170211

10-Day Weather Forecast

Almanac

Astronomy

Aug. 29, 2016 Rise Set
Actual Time
Civil Twilight
Nautical Twilight
Astronomical Twilight
Moon
Length of Visible Light
Length of Day
Tomorrow will be .
, % of the Moon is Illuminated

Today's Extremes

State Highs State Lows

Community

WunderPhotos

Upload Photos

1,935,800 photos uploaded!

WunderBlog® & News

Nearby

Air Quality

  Air Quality AQ Index Pollutant
Not available.

Snow Depth

Station Depth Elevation

Earthquake Activity

City Distance Mag. Time & Date
Minimum magnitude displayed is 2.5.

Coastal Water Temperatures

Place Temperature

Stations

Nearby Weather Stations

Station Location Temp. Windchill Dew Point Humidity Wind Precip. Elev Updated Type
                   

Watches & Warnings

There are currently no watches in effect.